sat.trackr.live / text

‹ back to catalog

2023-091C

NORAD 57168 · 2023-091C

PAYLOAD ACTIVE UNKNOWN

§ Identity

Operator
Country
CIS
Launch date
2023-06-27
Launch site
VOSTO
Launch vehicle
Mass (kg)
RCS (m²)

External: N2YO · Heavens-Above · Gunter

§ Orbital elements

Epoch: 2026-09-21T22:24:25.962048Z

Period
94.24 min
Inclination
97.4930°
Eccentricity
0.0012245
Mean motion
15.27953264 rev/d
Perigee alt
473.5 km
Apogee alt
490.3 km
Semi-major
6,860.1 km
B*
2.1835e-4
RAAN
327.7437°
Arg perigee
122.3520°
Mean anomaly
237.8907°
Rev number
17,902

§ Raw data

2023-091C1 57168U 23091C   26264.93363382  .00005892  00000+0  21835-3 0  99942 57168  97.4930 327.7437 0012245 122.3520 237.8907 15.27953264179022

JSON: /api/v1/satellites/57168 · /tle

For live sub-satellite position, see the globe view (requires WebGL).

§ Visibility from observer

Set your observer location to see the next 7 days of passes ≥ 10°. The values pass through the URL so the page stays shareable.

No JS? Fill the form by hand. The geolocation button needs JavaScript.

§ Radio — SatNOGS DB

ModeDescriptionDownlinkUplink
LoRa LoRa: BW 125kHz, SF 7 436.000 MHz
DOKA Mode U - DOKA 9k6 (inactive) 435.640 MHz
DOKA Mode U - DOKA 9k6 (inactive) 435.742 MHz
FSK Mode U - Transmitter (inactive) 436.675 MHz

4 transmitters · refreshed weekly from db.satnogs.org